EW3456 Weather Reports


time (UTC)temp
C
wind
direction
speed
KPH
gust
KPH
rain 1hr
cm
rain 24hr
cm
rain mn
cm
humidity
%
barometer
mb
20260509033601 16 102 0.0 0.0 0.00 0.00 0.00 89 1014.5
20260509032601 16 102 0.0 0.0 0.00 0.00 0.00 89 1014.6
20260509031601 16 102 0.0 0.0 0.00 0.00 0.00 89 1014.6
20260509030602 16 102 0.0 0.0 0.00 0.00 0.00 89 1014.6
20260509025602 16 102 0.0 0.0 0.00 0.00 0.00 88 1014.5
20260509024602 16 102 0.0 0.0 0.00 0.00 0.00 86 1014.5
20260509023602 16 102 0.0 0.0 0.00 0.00 0.00 87 1014.3
20260509021602 16 102 0.0 1.6 0.00 0.00 0.00 86 1014.3
20260509020601 16 99 0.0 0.0 0.00 0.00 0.00 86 1014.1
20260509015602 17 99 0.0 0.0 0.00 0.00 0.00 86 1014.3
20260509014602 17 99 0.0 0.0 0.00 0.00 0.00 85 1014.3
20260509013601 17 99 0.0 0.0 0.00 0.00 0.00 85 1014.0
20260509012601 17 99 0.0 0.0 0.00 0.00 0.00 83 1014.1
20260509011602 17 99 0.0 0.0 0.00 0.00 0.00 84 1014.1
20260509010601 17 99 0.0 0.0 0.00 0.00 0.00 83 1013.8
20260509005601 17 99 0.0 0.0 0.00 0.00 0.00 81 1013.7
20260509004602 18 99 0.0 0.0 0.00 0.00 0.00 81 1013.7
20260509003601 18 99 0.0 0.0 0.00 0.00 0.00 80 1013.7
20260509002602 18 99 0.0 0.0 0.00 0.00 0.00 79 1013.8
20260509001602 18 99 0.0 0.0 0.00 0.00 0.00 78 1013.9
20260508235602 18 99 0.0 0.0 0.00 0.00 0.00 76 1013.6
20260508234601 18 99 0.0 0.0 0.00 0.00 0.00 76 1013.5
20260508233602 18 99 0.0 0.0 0.00 0.00 0.00 76 1013.4
20260508230602 18 99 0.0 0.0 0.00 0.00 0.00 74 1013.6
20260508225601 18 99 0.0 0.0 0.00 0.00 0.00 72 1013.4
20260508224602 18 99 0.0 0.0 0.00 0.00 0.00 73 1013.5
20260508223602 18 99 0.0 0.0 0.00 0.00 0.00 71 1013.5
20260508222602 18 99 0.0 0.0 0.00 0.00 0.00 72 1013.6
20260508221601 18 99 0.0 0.0 0.00 0.00 0.00 71 1013.5
20260508220602 19 99 0.0 0.0 0.00 0.00 0.00 68 1013.5
20260508215601 19 94 0.0 0.0 0.00 0.00 0.00 66 1013.4
20260508214602 19 87 0.0 0.0 0.00 0.00 0.00 67 1013.5
20260508213602 20 87 0.0 0.0 0.00 0.00 0.00 66 1013.5
20260508212601 20 89 0.0 0.0 0.00 0.00 0.00 62 1013.5
20260508211602 20 101 0.0 3.2 0.00 0.00 0.00 59 1013.7
20260508210602 20 97 1.6 4.8 0.00 0.00 0.00 57 1013.6
20260508205602 20 85 0.0 0.0 0.00 0.00 0.00 65 1013.5
20260508204601 20 89 0.0 0.0 0.00 0.00 0.00 61 1013.5
20260508203601 20 94 0.0 0.0 0.00 0.00 0.00 64 1013.6
20260508202602 20 81 0.0 0.0 0.00 0.00 0.00 60 1013.9
20260508201601 20 59 0.0 1.6 0.00 0.00 0.00 57 1013.9
20260508200601 20 107 0.0 4.8 0.00 0.00 0.00 57 1014.2
20260508193601 20 78 0.0 1.6 0.00 0.00 0.00 54 1014.3
20260508192602 20 44 0.0 0.0 0.00 0.00 0.00 58 1014.5
20260508191601 20 62 0.0 1.6 0.00 0.00 0.00 55 1014.6
20260508190601 21 108 0.0 4.8 0.00 0.00 0.00 51 1014.7
20260508185601 21 113 0.0 4.8 0.00 0.00 0.00 56 1014.7
20260508184601 20 165 0.0 0.0 0.00 0.00 0.00 60 1014.9
20260508183601 20 113 0.0 1.6 0.00 0.00 0.00 53 1015.1
20260508182602 20 46 0.0 0.0 0.00 0.00 0.00 55 1015.3
20260508181602 20 203 0.0 1.6 0.00 0.00 0.00 51 1015.3
20260508180601 21 184 0.0 4.8 0.00 0.00 0.00 52 1015.4
20260508175601 20 89 0.0 3.2 0.00 0.00 0.00 54 1015.7
20260508174601 20 124 0.0 3.2 0.00 0.00 0.00 54 1015.8
20260508173602 20 322 0.0 1.6 0.00 0.00 0.00 56 1015.9
20260508170601 20 70 0.0 4.8 0.00 0.00 0.00 54 1016.5
20260508165601 20 350 0.0 1.6 0.00 0.00 0.00 55 1016.7
20260508163602 19 77 0.0 4.8 0.00 0.00 0.00 57 1017.0
20260508162602 20 233 0.0 4.8 0.00 0.00 0.00 58 1017.2
20260508161602 19 108 0.0 4.8 0.00 0.00 0.00 59 1017.2
20260508160601 19 119 0.0 4.8 0.00 0.00 0.00 51 1017.2
20260508155602 19 98 1.6 9.7 0.00 0.00 0.00 58 1017.3
20260508154601 18 91 0.0 3.2 0.00 0.00 0.00 57 1017.6
20260508153602 18 106 0.0 4.8 0.00 0.00 0.00 67 1017.8
20260508152601 18 96 1.6 9.7 0.00 0.00 0.00 61 1017.9
20260508151602 18 100 3.2 12.9 0.00 0.00 0.00 60 1017.9
20260508144602 18 103 1.6 11.3 0.00 0.00 0.00 69 1017.4
20260508143601 18 100 3.2 9.7 0.00 0.00 0.00 70 1017.4
20260508142602 17 104 1.6 9.7 0.00 0.00 0.00 73 1017.8
20260508141602 17 109 1.6 11.3 0.00 0.00 0.00 72 1017.9
20260508140601 17 107 0.0 4.8 0.00 0.00 0.00 75 1018.0
20260508135602 16 105 0.0 3.2 0.00 0.00 0.00 77 1017.9
20260508133602 15 111 0.0 3.2 0.00 0.00 0.00 82 1018.1
20260508132602 14 111 0.0 1.6 0.00 0.00 0.00 82 1018.0
20260508131601 12 115 0.0 1.6 0.00 0.00 0.00 91 1017.7
20260508130602 12 110 0.0 0.0 0.00 0.00 0.00 92 1017.6
20260508125601 12 335 0.0 0.0 0.00 0.00 0.00 92 1017.5
20260508124602 11 334 0.0 0.0 0.00 0.00 0.00 92 1017.4
20260508123601 11 334 0.0 0.0 0.00 0.00 0.00 92 1017.2
20260508122602 11 334 0.0 0.0 0.00 0.00 0.00 92 1017.1
20260508121601 11 334 0.0 0.0 0.00 0.00 0.00 92 1017.1
20260508120602 11 334 0.0 0.0 0.00 0.00 0.00 92 1017.1
20260508115602 11 334 0.0 0.0 0.00 0.00 0.00 91 1016.8
20260508114602 11 334 0.0 0.0 0.00 0.00 0.00 91 1016.8
20260508113601 11 334 0.0 0.0 0.00 0.00 0.00 91 1016.5
20260508112602 11 334 0.0 0.0 0.00 0.00 0.00 91 1016.1
20260508110601 11 334 0.0 0.0 0.00 0.00 0.00 90 1015.5
20260508105601 11 334 0.0 0.0 0.00 0.00 0.00 90 1015.4
20260508104601 11 334 0.0 0.0 0.00 0.00 0.00 90 1015.5
20260508103601 11 334 0.0 0.0 0.00 0.00 0.00 90 1015.2
20260508100601 11 334 0.0 0.0 0.00 0.00 0.00 89 1014.8
20260508095602 11 334 0.0 0.0 0.00 0.00 0.00 89 1014.7
20260508094602 11 334 0.0 0.0 0.00 0.00 0.00 89 1014.6
20260508093601 11 334 0.0 0.0 0.00 0.00 0.00 89 1014.6
20260508092602 11 334 0.0 0.0 0.00 0.00 0.00 89 1014.7
20260508090601 12 334 0.0 0.0 0.00 0.00 0.00 88 1014.3
20260508085602 12 334 0.0 0.0 0.00 0.00 0.00 87 1014.3
20260508084602 12 334 0.0 0.0 0.00 0.00 0.00 87 1014.1
20260508081601 12 334 0.0 0.0 0.00 0.00 0.00 87 1014.1
20260508080602 12 334 0.0 0.0 0.00 0.00 0.00 86 1014.0
20260508075602 12 334 0.0 0.0 0.00 0.00 0.00 86 1014.0
20260508074602 12 334 0.0 0.0 0.00 0.00 0.00 85 1014.0
20260508072601 13 334 0.0 0.0 0.00 0.00 0.00 84 1013.9
20260508071601 13 334 0.0 0.0 0.00 0.00 0.00 84 1014.0
20260508070602 13 334 0.0 0.0 0.00 0.00 0.00 83 1013.8
20260508065601 13 334 0.0 0.0 0.00 0.00 0.00 81 1013.7
20260508064601 13 334 0.0 0.0 0.00 0.00 0.00 81 1013.8
20260508063601 13 334 0.0 0.0 0.00 0.00 0.00 81 1013.6
20260508062601 13 334 0.0 0.0 0.00 0.00 0.00 82 1013.6
20260508061602 14 334 0.0 0.0 0.00 0.00 0.00 81 1013.6
20260508060601 14 334 0.0 0.0 0.00 0.00 0.00 80 1013.5
20260508055602 14 334 0.0 0.0 0.00 0.00 0.00 80 1013.8
20260508054601 14 334 0.0 0.0 0.00 0.00 0.00 81 1013.9
20260508053602 15 334 0.0 0.0 0.00 0.00 0.00 80 1013.9
20260508051601 15 334 0.0 0.0 0.00 0.00 0.00 77 1013.8
20260508045601 15 334 0.0 0.0 0.00 0.00 0.00 75 1013.8
20260508044602 15 334 0.0 0.0 0.00 0.00 0.00 75 1013.4
20260508043602 15 334 0.0 0.0 0.00 0.00 0.00 75 1013.6
20260508040602 16 334 0.0 0.0 0.00 0.00 3.76 73 1013.3
20260508035601 16 334 0.0 0.0 0.00 0.00 3.76 72 1013.1
20260508034602 16 334 0.0 0.0 0.00 0.00 3.76 72 1013.1